owner,sensor,date,latitude,longitude,vertical_datum,sea_water_practical_salinity,qcFlag 
TCOON,ioos:station:TCOON:079:1,2013-06-01T00:30:00Z,27.8708,-97.5177,0.0,37.6,1111122 
TCOON,ioos:station:TCOON:079:1,2013-06-01T01:00:00Z,27.8708,-97.5177,0.0,37.5,1111122 
TCOON,ioos:station:TCOON:079:1,2013-06-01T01:30:00Z,27.8708,-97.5177,0.0,37.5,1111122 
TCOON,ioos:station:TCOON:079:1,2013-06-01T02:00:00Z,27.8708,-97.5177,0.0,37.5,1111122 
TCOON,ioos:station:TCOON:079:1,2013-06-01T04:30:00Z,27.8708,-97.5177,0.0,38.9,1111122 
TCOON,ioos:station:TCOON:079:1,2013-06-01T05:00:00Z,27.8708,-97.5177,0.0,39.1,1111122 
TCOON,ioos:station:TCOON:079:1,2013-06-01T05:30:00Z,27.8708,-97.5177,0.0,39.1,1111122 
TCOON,ioos:station:TCOON:079:1,2013-06-01T06:00:00Z,27.8708,-97.5177,0.0,38.8,1111122 
TCOON,ioos:station:TCOON:079:1,2013-06-01T06:30:00Z,27.8708,-97.5177,0.0,38.3,1111122 
TCOON,ioos:station:TCOON:079:1,2013-06-01T07:30:00Z,27.8708,-97.5177,0.0,38.5,1111122 
TCOON,ioos:station:TCOON:079:1,2013-06-01T08:30:00Z,27.8708,-97.5177,0.0,39.5,1111122 
TCOON,ioos:station:TCOON:079:1,2013-06-01T09:00:00Z,27.8708,-97.5177,0.0,39.6,1111122 
TCOON,ioos:station:TCOON:079:1,2013-06-01T09:30:00Z,27.8708,-97.5177,0.0,39.6,1111122 
TCOON,ioos:station:TCOON:079:1,2013-06-01T10:00:00Z,27.8708,-97.5177,0.0,39.6,1111122 
TCOON,ioos:station:TCOON:079:1,2013-06-01T11:30:00Z,27.8708,-97.5177,0.0,39.7,1111122 
TCOON,ioos:station:TCOON:079:1,2013-06-01T12:30:00Z,27.8708,-97.5177,0.0,40.0,1111122 
TCOON,ioos:station:TCOON:079:1,2013-06-01T13:00:00Z,27.8708,-97.5177,0.0,40.2,1111122 
TCOON,ioos:station:TCOON:079:1,2013-06-01T13:30:00Z,27.8708,-97.5177,0.0,40.1,1111122 
TCOON,ioos:station:TCOON:079:1,2013-06-01T14:00:00Z,27.8708,-97.5177,0.0,40.1,1111122 
TCOON,ioos:station:TCOON:079:1,2013-06-01T14:30:00Z,27.8708,-97.5177,0.0,40.3,1111122 
TCOON,ioos:station:TCOON:079:1,2013-06-01T16:30:00Z,27.8708,-97.5177,0.0,40.7,1111122 
TCOON,ioos:station:TCOON:079:1,2013-06-01T17:00:00Z,27.8708,-97.5177,0.0,40.3,1111122 
TCOON,ioos:station:TCOON:079:1,2013-06-01T17:30:00Z,27.8708,-97.5177,0.0,40.1,1111122 
TCOON,ioos:station:TCOON:079:1,2013-06-01T18:00:00Z,27.8708,-97.5177,0.0,40.5,1111122 
TCOON,ioos:station:TCOON:079:1,2013-06-01T18:30:00Z,27.8708,-97.5177,0.0,40.3,1111122 
TCOON,ioos:station:TCOON:079:1,2013-06-01T19:00:00Z,27.8708,-97.5177,0.0,38.8,1111122 
TCOON,ioos:station:TCOON:079:1,2013-06-01T19:30:00Z,27.8708,-97.5177,0.0,38.7,1111122 
TCOON,ioos:station:TCOON:079:1,2013-06-01T20:00:00Z,27.8708,-97.5177,0.0,39.3,1111122 
TCOON,ioos:station:TCOON:079:1,2013-06-01T21:00:00Z,27.8708,-97.5177,0.0,37.9,1111122 
TCOON,ioos:station:TCOON:079:1,2013-06-01T21:30:00Z,27.8708,-97.5177,0.0,37.5,1111122 
TCOON,ioos:station:TCOON:079:1,2013-06-01T22:00:00Z,27.8708,-97.5177,0.0,37.3,1111122 
TCOON,ioos:station:TCOON:079:1,2013-06-01T22:30:00Z,27.8708,-97.5177,0.0,37.3,1111122 
TCOON,ioos:station:TCOON:079:1,2013-06-01T23:30:00Z,27.8708,-97.5177,0.0,37.3,1111122 
TCOON,ioos:station:TCOON:079:1,2013-06-02T01:00:00Z,27.8708,-97.5177,0.0,37.4,1111122 
TCOON,ioos:station:TCOON:079:1,2013-06-02T01:30:00Z,27.8708,-97.5177,0.0,37.5,1111122 
TCOON,ioos:station:TCOON:079:1,2013-06-02T02:00:00Z,27.8708,-97.5177,0.0,38.2,1111122 
TCOON,ioos:station:TCOON:079:1,2013-06-02T02:30:00Z,27.8708,-97.5177,0.0,38.3,1111122 
TCOON,ioos:station:TCOON:079:1,2013-06-02T03:00:00Z,27.8708,-97.5177,0.0,38.4,1111122 
TCOON,ioos:station:TCOON:079:1,2013-06-02T03:30:00Z,27.8708,-97.5177,0.0,38.9,1111122 
TCOON,ioos:station:TCOON:079:1,2013-06-02T04:00:00Z,27.8708,-97.5177,0.0,39.3,1111122 
TCOON,ioos:station:TCOON:079:1,2013-06-02T05:00:00Z,27.8708,-97.5177,0.0,39.4,1111122 
TCOON,ioos:station:TCOON:079:1,2013-06-02T06:30:00Z,27.8708,-97.5177,0.0,40.0,1111122 
TCOON,ioos:station:TCOON:079:1,2013-06-02T07:00:00Z,27.8708,-97.5177,0.0,40.0,1111122 
TCOON,ioos:station:TCOON:079:1,2013-06-02T07:30:00Z,27.8708,-97.5177,0.0,40.1,1111122 
TCOON,ioos:station:TCOON:079:1,2013-06-02T08:00:00Z,27.8708,-97.5177,0.0,40.0,1111122 
TCOON,ioos:station:TCOON:079:1,2013-06-02T08:30:00Z,27.8708,-97.5177,0.0,40.2,1111122 
TCOON,ioos:station:TCOON:079:1,2013-06-02T09:30:00Z,27.8708,-97.5177,0.0,40.2,1111122 
TCOON,ioos:station:TCOON:079:1,2013-06-02T10:00:00Z,27.8708,-97.5177,0.0,40.3,1111122 
TCOON,ioos:station:TCOON:079:1,2013-06-02T10:30:00Z,27.8708,-97.5177,0.0,40.4,1111122 
TCOON,ioos:station:TCOON:079:1,2013-06-02T11:30:00Z,27.8708,-97.5177,0.0,40.6,1111122 
TCOON,ioos:station:TCOON:079:1,2013-06-02T12:00:00Z,27.8708,-97.5177,0.0,40.8,1111122 
TCOON,ioos:station:TCOON:079:1,2013-06-02T12:30:00Z,27.8708,-97.5177,0.0,40.8,1111122 
TCOON,ioos:station:TCOON:079:1,2013-06-02T13:30:00Z,27.8708,-97.5177,0.0,41.1,1111122 
TCOON,ioos:station:TCOON:079:1,2013-06-02T14:00:00Z,27.8708,-97.5177,0.0,41.2,1111122 
TCOON,ioos:station:TCOON:079:1,2013-06-02T15:00:00Z,27.8708,-97.5177,0.0,41.7,1111122 
TCOON,ioos:station:TCOON:079:1,2013-06-02T16:30:00Z,27.8708,-97.5177,0.0,42.0,1111122 
TCOON,ioos:station:TCOON:079:1,2013-06-02T18:00:00Z,27.8708,-97.5177,0.0,39.4,1111122 
TCOON,ioos:station:TCOON:079:1,2013-06-02T19:00:00Z,27.8708,-97.5177,0.0,39.8,1111122 
TCOON,ioos:station:TCOON:079:1,2013-06-02T19:30:00Z,27.8708,-97.5177,0.0,39.6,1111122 
TCOON,ioos:station:TCOON:079:1,2013-06-02T20:00:00Z,27.8708,-97.5177,0.0,39.4,1111122 
TCOON,ioos:station:TCOON:079:1,2013-06-02T21:30:00Z,27.8708,-97.5177,0.0,42.2,1111122 
TCOON,ioos:station:TCOON:079:1,2013-06-02T23:00:00Z,27.8708,-97.5177,0.0,42.4,1111122 
TCOON,ioos:station:TCOON:079:1,2013-06-03T04:00:00Z,27.8708,-97.5177,0.0,43.3,1111122 
TCOON,ioos:station:TCOON:079:1,2013-06-03T05:30:00Z,27.8708,-97.5177,0.0,44.0,1111122 
TCOON,ioos:station:TCOON:079:1,2013-06-03T13:00:00Z,27.8708,-97.5177,0.0,43.6,1111122 
TCOON,ioos:station:TCOON:079:1,2013-06-03T13:30:00Z,27.8708,-97.5177,0.0,43.0,1111122 
TCOON,ioos:station:TCOON:079:1,2013-06-03T14:00:00Z,27.8708,-97.5177,0.0,42.3,1111122 
TCOON,ioos:station:TCOON:079:1,2013-06-03T14:30:00Z,27.8708,-97.5177,0.0,40.3,1111122 
TCOON,ioos:station:TCOON:079:1,2013-06-03T15:00:00Z,27.8708,-97.5177,0.0,42.3,1111122 
TCOON,ioos:station:TCOON:079:1,2013-06-03T16:00:00Z,27.8708,-97.5177,0.0,41.5,1111122 
TCOON,ioos:station:TCOON:079:1,2013-06-03T16:30:00Z,27.8708,-97.5177,0.0,45.0,1111122 
TCOON,ioos:station:TCOON:079:1,2013-06-03T17:30:00Z,27.8708,-97.5177,0.0,44.3,1111122 
TCOON,ioos:station:TCOON:079:1,2013-06-03T18:00:00Z,27.8708,-97.5177,0.0,43.3,1111122 
TCOON,ioos:station:TCOON:079:1,2013-06-03T19:00:00Z,27.8708,-97.5177,0.0,43.1,1111122 
TCOON,ioos:station:TCOON:079:1,2013-06-03T20:30:00Z,27.8708,-97.5177,0.0,44.1,1111122 
TCOON,ioos:station:TCOON:079:1,2013-06-03T21:30:00Z,27.8708,-97.5177,0.0,43.9,1111122 
TCOON,ioos:station:TCOON:079:1,2013-06-03T22:00:00Z,27.8708,-97.5177,0.0,43.4,1111122 
TCOON,ioos:station:TCOON:079:1,2013-06-03T22:30:00Z,27.8708,-97.5177,0.0,41.4,1111122 
TCOON,ioos:station:TCOON:079:1,2013-06-04T00:30:00Z,27.8708,-97.5177,0.0,41.5,1111122 
TCOON,ioos:station:TCOON:079:1,2013-06-04T01:00:00Z,27.8708,-97.5177,0.0,41.8,1111122 
TCOON,ioos:station:TCOON:079:1,2013-06-04T01:30:00Z,27.8708,-97.5177,0.0,42.3,1111122 
TCOON,ioos:station:TCOON:079:1,2013-06-04T02:00:00Z,27.8708,-97.5177,0.0,43.1,1111122 
TCOON,ioos:station:TCOON:079:1,2013-06-04T02:30:00Z,27.8708,-97.5177,0.0,43.6,1111122 
TCOON,ioos:station:TCOON:079:1,2013-06-04T03:00:00Z,27.8708,-97.5177,0.0,43.8,1111122 
TCOON,ioos:station:TCOON:079:1,2013-06-04T03:30:00Z,27.8708,-97.5177,0.0,43.6,1111122 
TCOON,ioos:station:TCOON:079:1,2013-06-04T04:00:00Z,27.8708,-97.5177,0.0,43.6,1111122 
TCOON,ioos:station:TCOON:079:1,2013-06-04T04:30:00Z,27.8708,-97.5177,0.0,43.6,1111122 
TCOON,ioos:station:TCOON:079:1,2013-06-04T05:00:00Z,27.8708,-97.5177,0.0,43.7,1111122 
TCOON,ioos:station:TCOON:079:1,2013-06-04T05:30:00Z,27.8708,-97.5177,0.0,43.9,1111122 
TCOON,ioos:station:TCOON:079:1,2013-06-04T06:00:00Z,27.8708,-97.5177,0.0,44.2,1111122 
TCOON,ioos:station:TCOON:079:1,2013-06-04T06:30:00Z,27.8708,-97.5177,0.0,44.0,1111122 
TCOON,ioos:station:TCOON:079:1,2013-06-04T07:00:00Z,27.8708,-97.5177,0.0,43.5,1111122 
TCOON,ioos:station:TCOON:079:1,2013-06-04T08:30:00Z,27.8708,-97.5177,0.0,43.9,1111122 
TCOON,ioos:station:TCOON:079:1,2013-06-04T09:00:00Z,27.8708,-97.5177,0.0,44.8,1111122 
TCOON,ioos:station:TCOON:079:1,2013-06-04T09:30:00Z,27.8708,-97.5177,0.0,41.7,1111122 
TCOON,ioos:station:TCOON:079:1,2013-06-04T10:00:00Z,27.8708,-97.5177,0.0,40.4,1111122 
TCOON,ioos:station:TCOON:079:1,2013-06-04T10:30:00Z,27.8708,-97.5177,0.0,40.2,1111122 
TCOON,ioos:station:TCOON:079:1,2013-06-04T11:00:00Z,27.8708,-97.5177,0.0,40.2,1111122 
TCOON,ioos:station:TCOON:079:1,2013-06-04T12:00:00Z,27.8708,-97.5177,0.0,40.1,1111122 
TCOON,ioos:station:TCOON:079:1,2013-06-04T13:00:00Z,27.8708,-97.5177,0.0,40.2,1111122 
TCOON,ioos:station:TCOON:079:1,2013-06-04T13:30:00Z,27.8708,-97.5177,0.0,42.6,1111122 
TCOON,ioos:station:TCOON:079:1,2013-06-04T14:00:00Z,27.8708,-97.5177,0.0,42.4,1111122 
TCOON,ioos:station:TCOON:079:1,2013-06-04T14:30:00Z,27.8708,-97.5177,0.0,42.5,1111122 
TCOON,ioos:station:TCOON:079:1,2013-06-04T15:00:00Z,27.8708,-97.5177,0.0,43.0,1111122 
TCOON,ioos:station:TCOON:079:1,2013-06-04T16:00:00Z,27.8708,-97.5177,0.0,44.1,1111122 
TCOON,ioos:station:TCOON:079:1,2013-06-04T16:30:00Z,27.8708,-97.5177,0.0,44.6,1111122 
TCOON,ioos:station:TCOON:079:1,2013-06-04T18:30:00Z,27.8708,-97.5177,0.0,45.3,1111122 
TCOON,ioos:station:TCOON:079:1,2013-06-04T19:00:00Z,27.8708,-97.5177,0.0,43.0,1111122 
TCOON,ioos:station:TCOON:079:1,2013-06-04T19:30:00Z,27.8708,-97.5177,0.0,42.0,1111122 
TCOON,ioos:station:TCOON:079:1,2013-06-04T20:30:00Z,27.8708,-97.5177,0.0,42.5,1111122 
TCOON,ioos:station:TCOON:079:1,2013-06-04T21:00:00Z,27.8708,-97.5177,0.0,43.2,1111122 
TCOON,ioos:station:TCOON:079:1,2013-06-04T22:00:00Z,27.8708,-97.5177,0.0,39.3,1111122 
TCOON,ioos:station:TCOON:079:1,2013-06-04T22:30:00Z,27.8708,-97.5177,0.0,39.6,1111122 
TCOON,ioos:station:TCOON:079:1,2013-06-04T23:00:00Z,27.8708,-97.5177,0.0,40.5,1111122 
TCOON,ioos:station:TCOON:079:1,2013-06-04T23:30:00Z,27.8708,-97.5177,0.0,40.7,1111122 
TCOON,ioos:station:TCOON:079:1,2013-06-05T00:00:00Z,27.8708,-97.5177,0.0,41.3,1111122 
TCOON,ioos:station:TCOON:079:1,2013-06-05T00:30:00Z,27.8708,-97.5177,0.0,41.5,1111122 
TCOON,ioos:station:TCOON:079:1,2013-06-05T01:00:00Z,27.8708,-97.5177,0.0,41.8,1111122 
TCOON,ioos:station:TCOON:079:1,2013-06-05T02:00:00Z,27.8708,-97.5177,0.0,41.0,1111122 
TCOON,ioos:station:TCOON:079:1,2013-06-05T02:30:00Z,27.8708,-97.5177,0.0,39.6,1111122 
TCOON,ioos:station:TCOON:079:1,2013-06-05T03:00:00Z,27.8708,-97.5177,0.0,43.6,1111122 
TCOON,ioos:station:TCOON:079:1,2013-06-05T04:30:00Z,27.8708,-97.5177,0.0,42.2,1111122 
TCOON,ioos:station:TCOON:079:1,2013-06-05T05:00:00Z,27.8708,-97.5177,0.0,43.4,1111122 
TCOON,ioos:station:TCOON:079:1,2013-06-05T05:30:00Z,27.8708,-97.5177,0.0,42.4,1111122 
TCOON,ioos:station:TCOON:079:1,2013-06-05T06:30:00Z,27.8708,-97.5177,0.0,42.1,1111122 
TCOON,ioos:station:TCOON:079:1,2013-06-05T07:00:00Z,27.8708,-97.5177,0.0,43.3,1111122 
TCOON,ioos:station:TCOON:079:1,2013-06-05T07:30:00Z,27.8708,-97.5177,0.0,43.0,1111122 
TCOON,ioos:station:TCOON:079:1,2013-06-05T08:00:00Z,27.8708,-97.5177,0.0,43.8,1111122 
TCOON,ioos:station:TCOON:079:1,2013-06-05T08:30:00Z,27.8708,-97.5177,0.0,43.4,1111122 
TCOON,ioos:station:TCOON:079:1,2013-06-05T09:00:00Z,27.8708,-97.5177,0.0,41.8,1111122 
TCOON,ioos:station:TCOON:079:1,2013-06-05T09:30:00Z,27.8708,-97.5177,0.0,41.8,1111122 
TCOON,ioos:station:TCOON:079:1,2013-06-05T10:00:00Z,27.8708,-97.5177,0.0,42.7,1111122 
TCOON,ioos:station:TCOON:079:1,2013-06-05T10:30:00Z,27.8708,-97.5177,0.0,43.3,1111122 
TCOON,ioos:station:TCOON:079:1,2013-06-05T11:00:00Z,27.8708,-97.5177,0.0,42.2,1111122 
TCOON,ioos:station:TCOON:079:1,2013-06-05T12:00:00Z,27.8708,-97.5177,0.0,43.6,1111122 
TCOON,ioos:station:TCOON:079:1,2013-06-05T12:30:00Z,27.8708,-97.5177,0.0,44.6,1111122 
TCOON,ioos:station:TCOON:079:1,2013-06-05T13:30:00Z,27.8708,-97.5177,0.0,41.4,1111122 
TCOON,ioos:station:TCOON:079:1,2013-06-05T14:00:00Z,27.8708,-97.5177,0.0,40.7,1111122 
TCOON,ioos:station:TCOON:079:1,2013-06-05T14:30:00Z,27.8708,-97.5177,0.0,41.0,1111122 
TCOON,ioos:station:TCOON:079:1,2013-06-05T16:00:00Z,27.8708,-97.5177,0.0,40.6,1111122 
TCOON,ioos:station:TCOON:079:1,2013-06-05T16:30:00Z,27.8708,-97.5177,0.0,42.6,1111122 
TCOON,ioos:station:TCOON:079:1,2013-06-05T17:00:00Z,27.8708,-97.5177,0.0,39.1,1111122 
TCOON,ioos:station:TCOON:079:1,2013-06-05T17:30:00Z,27.8708,-97.5177,0.0,38.5,1111122 
TCOON,ioos:station:TCOON:079:1,2013-06-05T19:00:00Z,27.8708,-97.5177,0.0,38.3,1111122 
TCOON,ioos:station:TCOON:079:1,2013-06-05T20:00:00Z,27.8708,-97.5177,0.0,38.1,1111122 
TCOON,ioos:station:TCOON:079:1,2013-06-05T21:00:00Z,27.8708,-97.5177,0.0,38.0,1111122 
TCOON,ioos:station:TCOON:079:1,2013-06-05T22:00:00Z,27.8708,-97.5177,0.0,38.0,1111122 
TCOON,ioos:station:TCOON:079:1,2013-06-05T23:30:00Z,27.8708,-97.5177,0.0,38.0,1111122 
TCOON,ioos:station:TCOON:079:1,2013-06-06T00:00:00Z,27.8708,-97.5177,0.0,38.3,1111122 
TCOON,ioos:station:TCOON:079:1,2013-06-06T00:30:00Z,27.8708,-97.5177,0.0,39.2,1111122 
TCOON,ioos:station:TCOON:079:1,2013-06-06T01:00:00Z,27.8708,-97.5177,0.0,39.6,1111122 
TCOON,ioos:station:TCOON:079:1,2013-06-06T01:30:00Z,27.8708,-97.5177,0.0,40.5,1111122 
TCOON,ioos:station:TCOON:079:1,2013-06-06T02:00:00Z,27.8708,-97.5177,0.0,40.0,1111122 
TCOON,ioos:station:TCOON:079:1,2013-06-06T03:00:00Z,27.8708,-97.5177,0.0,41.4,1111122 
TCOON,ioos:station:TCOON:079:1,2013-06-06T03:30:00Z,27.8708,-97.5177,0.0,42.4,1111122 
TCOON,ioos:station:TCOON:079:1,2013-06-06T04:00:00Z,27.8708,-97.5177,0.0,41.8,1111122 
TCOON,ioos:station:TCOON:079:1,2013-06-06T04:30:00Z,27.8708,-97.5177,0.0,40.4,1111122 
TCOON,ioos:station:TCOON:079:1,2013-06-06T05:00:00Z,27.8708,-97.5177,0.0,41.7,1111122 
TCOON,ioos:station:TCOON:079:1,2013-06-06T05:30:00Z,27.8708,-97.5177,0.0,42.0,1111122 
TCOON,ioos:station:TCOON:079:1,2013-06-06T06:00:00Z,27.8708,-97.5177,0.0,41.8,1111122 
TCOON,ioos:station:TCOON:079:1,2013-06-06T07:30:00Z,27.8708,-97.5177,0.0,42.9,1111122 
TCOON,ioos:station:TCOON:079:1,2013-06-06T08:00:00Z,27.8708,-97.5177,0.0,42.3,1111122 
TCOON,ioos:station:TCOON:079:1,2013-06-06T08:30:00Z,27.8708,-97.5177,0.0,41.9,1111122 
TCOON,ioos:station:TCOON:079:1,2013-06-06T09:00:00Z,27.8708,-97.5177,0.0,42.0,1111122 
TCOON,ioos:station:TCOON:079:1,2013-06-06T09:30:00Z,27.8708,-97.5177,0.0,42.1,1111122 
TCOON,ioos:station:TCOON:079:1,2013-06-06T10:00:00Z,27.8708,-97.5177,0.0,41.5,1111122 
TCOON,ioos:station:TCOON:079:1,2013-06-06T10:30:00Z,27.8708,-97.5177,0.0,39.9,1111122 
TCOON,ioos:station:TCOON:079:1,2013-06-06T11:00:00Z,27.8708,-97.5177,0.0,39.2,1111122 
TCOON,ioos:station:TCOON:079:1,2013-06-06T11:30:00Z,27.8708,-97.5177,0.0,38.3,1111122 
TCOON,ioos:station:TCOON:079:1,2013-06-06T12:00:00Z,27.8708,-97.5177,0.0,38.2,1111122 
TCOON,ioos:station:TCOON:079:1,2013-06-06T12:30:00Z,27.8708,-97.5177,0.0,38.2,1111122 
TCOON,ioos:station:TCOON:079:1,2013-06-06T13:30:00Z,27.8708,-97.5177,0.0,38.2,1111122 
TCOON,ioos:station:TCOON:079:1,2013-06-06T14:00:00Z,27.8708,-97.5177,0.0,38.2,1111122 
TCOON,ioos:station:TCOON:079:1,2013-06-06T15:00:00Z,27.8708,-97.5177,0.0,38.4,1111122 
TCOON,ioos:station:TCOON:079:1,2013-06-06T16:00:00Z,27.8708,-97.5177,0.0,38.4,1111122 
TCOON,ioos:station:TCOON:079:1,2013-06-06T17:00:00Z,27.8708,-97.5177,0.0,38.2,1111122 
TCOON,ioos:station:TCOON:079:1,2013-06-06T17:30:00Z,27.8708,-97.5177,0.0,38.1,1111122 
TCOON,ioos:station:TCOON:079:1,2013-06-06T18:00:00Z,27.8708,-97.5177,0.0,38.0,1111122 
TCOON,ioos:station:TCOON:079:1,2013-06-06T18:30:00Z,27.8708,-97.5177,0.0,37.9,1111122 
TCOON,ioos:station:TCOON:079:1,2013-06-06T20:00:00Z,27.8708,-97.5177,0.0,37.9,1111122 
TCOON,ioos:station:TCOON:079:1,2013-06-06T21:00:00Z,27.8708,-97.5177,0.0,37.9,1111122 
TCOON,ioos:station:TCOON:079:1,2013-06-06T22:00:00Z,27.8708,-97.5177,0.0,38.0,1111122 
TCOON,ioos:station:TCOON:079:1,2013-06-06T22:30:00Z,27.8708,-97.5177,0.0,38.0,1111122 
TCOON,ioos:station:TCOON:079:1,2013-06-06T23:00:00Z,27.8708,-97.5177,0.0,37.9,1111122 
TCOON,ioos:station:TCOON:079:1,2013-06-06T23:30:00Z,27.8708,-97.5177,0.0,37.9,1111122 
TCOON,ioos:station:TCOON:079:1,2013-06-07T00:00:00Z,27.8708,-97.5177,0.0,38.2,1111122 
TCOON,ioos:station:TCOON:079:1,2013-06-07T00:30:00Z,27.8708,-97.5177,0.0,38.7,1111122 
TCOON,ioos:station:TCOON:079:1,2013-06-07T01:30:00Z,27.8708,-97.5177,0.0,39.5,1111122 
TCOON,ioos:station:TCOON:079:1,2013-06-07T02:00:00Z,27.8708,-97.5177,0.0,39.9,1111122 
TCOON,ioos:station:TCOON:079:1,2013-06-07T02:30:00Z,27.8708,-97.5177,0.0,39.5,1111122 
TCOON,ioos:station:TCOON:079:1,2013-06-07T03:00:00Z,27.8708,-97.5177,0.0,39.7,1111122 
TCOON,ioos:station:TCOON:079:1,2013-06-07T04:00:00Z,27.8708,-97.5177,0.0,40.0,1111122 
TCOON,ioos:station:TCOON:079:1,2013-06-07T04:30:00Z,27.8708,-97.5177,0.0,40.0,1111122 
TCOON,ioos:station:TCOON:079:1,2013-06-07T07:00:00Z,27.8708,-97.5177,0.0,40.4,1111122 
TCOON,ioos:station:TCOON:079:1,2013-06-07T07:30:00Z,27.8708,-97.5177,0.0,40.1,1111122 
TCOON,ioos:station:TCOON:079:1,2013-06-07T08:00:00Z,27.8708,-97.5177,0.0,38.8,1111122 
TCOON,ioos:station:TCOON:079:1,2013-06-07T08:30:00Z,27.8708,-97.5177,0.0,37.2,1111122 
TCOON,ioos:station:TCOON:079:1,2013-06-07T09:00:00Z,27.8708,-97.5177,0.0,37.6,1111122 
TCOON,ioos:station:TCOON:079:1,2013-06-07T09:30:00Z,27.8708,-97.5177,0.0,38.7,1111122 
TCOON,ioos:station:TCOON:079:1,2013-06-07T10:00:00Z,27.8708,-97.5177,0.0,38.6,1111122 
TCOON,ioos:station:TCOON:079:1,2013-06-07T10:30:00Z,27.8708,-97.5177,0.0,38.5,1111122 
TCOON,ioos:station:TCOON:079:1,2013-06-07T11:00:00Z,27.8708,-97.5177,0.0,38.4,1111122 
TCOON,ioos:station:TCOON:079:1,2013-06-07T11:30:00Z,27.8708,-97.5177,0.0,38.8,1111122 
TCOON,ioos:station:TCOON:079:1,2013-06-07T12:30:00Z,27.8708,-97.5177,0.0,39.1,1111122 
TCOON,ioos:station:TCOON:079:1,2013-06-07T13:00:00Z,27.8708,-97.5177,0.0,39.1,1111122 
TCOON,ioos:station:TCOON:079:1,2013-06-07T14:00:00Z,27.8708,-97.5177,0.0,38.9,1111122 
TCOON,ioos:station:TCOON:079:1,2013-06-07T14:30:00Z,27.8708,-97.5177,0.0,39.2,1111122 
TCOON,ioos:station:TCOON:079:1,2013-06-07T15:00:00Z,27.8708,-97.5177,0.0,39.2,1111122 
TCOON,ioos:station:TCOON:079:1,2013-06-07T17:30:00Z,27.8708,-97.5177,0.0,39.0,1111122 
TCOON,ioos:station:TCOON:079:1,2013-06-07T18:00:00Z,27.8708,-97.5177,0.0,38.9,1111122 
TCOON,ioos:station:TCOON:079:1,2013-06-07T18:30:00Z,27.8708,-97.5177,0.0,38.6,1111122 
TCOON,ioos:station:TCOON:079:1,2013-06-07T19:00:00Z,27.8708,-97.5177,0.0,38.7,1111122 
TCOON,ioos:station:TCOON:079:1,2013-06-07T20:00:00Z,27.8708,-97.5177,0.0,38.8,1111122 
TCOON,ioos:station:TCOON:079:1,2013-06-07T20:30:00Z,27.8708,-97.5177,0.0,39.0,1111122 
TCOON,ioos:station:TCOON:079:1,2013-06-07T21:00:00Z,27.8708,-97.5177,0.0,39.1,1111122 
TCOON,ioos:station:TCOON:079:1,2013-06-07T22:00:00Z,27.8708,-97.5177,0.0,37.9,1111122 
TCOON,ioos:station:TCOON:079:1,2013-06-07T23:00:00Z,27.8708,-97.5177,0.0,35.7,1111122 
TCOON,ioos:station:TCOON:079:1,2013-06-07T23:30:00Z,27.8708,-97.5177,0.0,36.0,1111122 
TCOON,ioos:station:TCOON:079:1,2013-06-08T00:00:00Z,27.8708,-97.5177,0.0,37.3,1111122 
TCOON,ioos:station:TCOON:079:1,2013-06-08T00:30:00Z,27.8708,-97.5177,0.0,37.4,1111122 
TCOON,ioos:station:TCOON:079:1,2013-06-08T01:00:00Z,27.8708,-97.5177,0.0,37.6,1111122 
TCOON,ioos:station:TCOON:079:1,2013-06-08T01:30:00Z,27.8708,-97.5177,0.0,37.9,1111122 
TCOON,ioos:station:TCOON:079:1,2013-06-08T02:00:00Z,27.8708,-97.5177,0.0,37.3,1111122 
TCOON,ioos:station:TCOON:079:1,2013-06-08T03:30:00Z,27.8708,-97.5177,0.0,35.2,1111122 
TCOON,ioos:station:TCOON:079:1,2013-06-08T04:00:00Z,27.8708,-97.5177,0.0,34.8,1111122 
TCOON,ioos:station:TCOON:079:1,2013-06-08T04:30:00Z,27.8708,-97.5177,0.0,34.5,1111122 
TCOON,ioos:station:TCOON:079:1,2013-06-08T05:00:00Z,27.8708,-97.5177,0.0,34.3,1111122 
TCOON,ioos:station:TCOON:079:1,2013-06-08T05:30:00Z,27.8708,-97.5177,0.0,34.5,1111122 
TCOON,ioos:station:TCOON:079:1,2013-06-08T06:00:00Z,27.8708,-97.5177,0.0,34.2,1111122 
TCOON,ioos:station:TCOON:079:1,2013-06-08T06:30:00Z,27.8708,-97.5177,0.0,33.9,1111122 
TCOON,ioos:station:TCOON:079:1,2013-06-08T07:00:00Z,27.8708,-97.5177,0.0,33.7,1111122 
TCOON,ioos:station:TCOON:079:1,2013-06-08T07:30:00Z,27.8708,-97.5177,0.0,32.9,1111122 
TCOON,ioos:station:TCOON:079:1,2013-06-08T08:00:00Z,27.8708,-97.5177,0.0,33.0,1111122 
TCOON,ioos:station:TCOON:079:1,2013-06-08T08:30:00Z,27.8708,-97.5177,0.0,33.5,1111122 
TCOON,ioos:station:TCOON:079:1,2013-06-08T09:00:00Z,27.8708,-97.5177,0.0,33.5,1111122 
TCOON,ioos:station:TCOON:079:1,2013-06-08T09:30:00Z,27.8708,-97.5177,0.0,32.8,1111122 
TCOON,ioos:station:TCOON:079:1,2013-06-08T10:00:00Z,27.8708,-97.5177,0.0,32.7,1111122 
TCOON,ioos:station:TCOON:079:1,2013-06-08T10:30:00Z,27.8708,-97.5177,0.0,36.1,1111122 
TCOON,ioos:station:TCOON:079:1,2013-06-08T11:00:00Z,27.8708,-97.5177,0.0,37.4,1111122 
TCOON,ioos:station:TCOON:079:1,2013-06-08T11:30:00Z,27.8708,-97.5177,0.0,38.3,1111122 
TCOON,ioos:station:TCOON:079:1,2013-06-08T12:00:00Z,27.8708,-97.5177,0.0,38.7,1111122 
TCOON,ioos:station:TCOON:079:1,2013-06-08T12:30:00Z,27.8708,-97.5177,0.0,38.8,1111122 
TCOON,ioos:station:TCOON:079:1,2013-06-08T13:00:00Z,27.8708,-97.5177,0.0,38.7,1111122 
TCOON,ioos:station:TCOON:079:1,2013-06-08T13:30:00Z,27.8708,-97.5177,0.0,38.4,1111122 
TCOON,ioos:station:TCOON:079:1,2013-06-08T14:00:00Z,27.8708,-97.5177,0.0,38.4,1111122 
TCOON,ioos:station:TCOON:079:1,2013-06-08T14:30:00Z,27.8708,-97.5177,0.0,38.8,1111122 
TCOON,ioos:station:TCOON:079:1,2013-06-08T15:00:00Z,27.8708,-97.5177,0.0,38.4,1111122 
TCOON,ioos:station:TCOON:079:1,2013-06-08T16:30:00Z,27.8708,-97.5177,0.0,38.0,1111122 
TCOON,ioos:station:TCOON:079:1,2013-06-08T17:00:00Z,27.8708,-97.5177,0.0,38.0,1111122 
TCOON,ioos:station:TCOON:079:1,2013-06-08T17:30:00Z,27.8708,-97.5177,0.0,38.2,1111122 
TCOON,ioos:station:TCOON:079:1,2013-06-08T18:00:00Z,27.8708,-97.5177,0.0,37.7,1111122 
TCOON,ioos:station:TCOON:079:1,2013-06-08T18:30:00Z,27.8708,-97.5177,0.0,37.9,1111122 
TCOON,ioos:station:TCOON:079:1,2013-06-08T19:00:00Z,27.8708,-97.5177,0.0,37.7,1111122 
TCOON,ioos:station:TCOON:079:1,2013-06-08T19:30:00Z,27.8708,-97.5177,0.0,37.7,1111122 
TCOON,ioos:station:TCOON:079:1,2013-06-08T20:00:00Z,27.8708,-97.5177,0.0,38.0,1111122 
TCOON,ioos:station:TCOON:079:1,2013-06-08T20:30:00Z,27.8708,-97.5177,0.0,38.0,1111122 
TCOON,ioos:station:TCOON:079:1,2013-06-08T21:00:00Z,27.8708,-97.5177,0.0,38.2,1111122 
TCOON,ioos:station:TCOON:079:1,2013-06-08T21:30:00Z,27.8708,-97.5177,0.0,38.4,1111122 
TCOON,ioos:station:TCOON:079:1,2013-06-08T22:00:00Z,27.8708,-97.5177,0.0,38.3,1111122 
TCOON,ioos:station:TCOON:079:1,2013-06-08T22:30:00Z,27.8708,-97.5177,0.0,38.3,1111122 
TCOON,ioos:station:TCOON:079:1,2013-06-08T23:00:00Z,27.8708,-97.5177,0.0,38.3,1111122 
TCOON,ioos:station:TCOON:079:1,2013-06-09T00:00:00Z,27.8708,-97.5177,0.0,38.1,1111122 
TCOON,ioos:station:TCOON:079:1,2013-06-09T00:30:00Z,27.8708,-97.5177,0.0,37.7,1111122 
TCOON,ioos:station:TCOON:079:1,2013-06-09T01:00:00Z,27.8708,-97.5177,0.0,37.9,1111122 
TCOON,ioos:station:TCOON:079:1,2013-06-09T01:30:00Z,27.8708,-97.5177,0.0,38.0,1111122 
TCOON,ioos:station:TCOON:079:1,2013-06-09T02:00:00Z,27.8708,-97.5177,0.0,37.7,1111122 
TCOON,ioos:station:TCOON:079:1,2013-06-09T02:30:00Z,27.8708,-97.5177,0.0,36.6,1111122 
TCOON,ioos:station:TCOON:079:1,2013-06-09T03:30:00Z,27.8708,-97.5177,0.0,36.7,1111122 
TCOON,ioos:station:TCOON:079:1,2013-06-09T04:00:00Z,27.8708,-97.5177,0.0,35.1,1111122 
TCOON,ioos:station:TCOON:079:1,2013-06-09T04:30:00Z,27.8708,-97.5177,0.0,36.0,1111122 
TCOON,ioos:station:TCOON:079:1,2013-06-09T05:00:00Z,27.8708,-97.5177,0.0,36.1,1111122 
TCOON,ioos:station:TCOON:079:1,2013-06-09T06:00:00Z,27.8708,-97.5177,0.0,36.3,1111122 
TCOON,ioos:station:TCOON:079:1,2013-06-09T06:30:00Z,27.8708,-97.5177,0.0,36.0,1111122 
TCOON,ioos:station:TCOON:079:1,2013-06-09T07:00:00Z,27.8708,-97.5177,0.0,36.2,1111122 